Tracking 22081 objects as of 4-Dec-2020
HD Live streaming from Space Station
objects crossing your sky now

FALCONSAT-7

Track FALCONSAT-7 now!
10-day predictions


NORAD ID: 44347
Int'l Code: 2019-036J
Perigee: 301.2 km
Apogee: 621.7 km
Inclination: 28.5 °
Period: 93.7 minutes
Semi major axis: 6832 km
RCS: Unknown
Launch date: June 25, 2019
Source: United States (US)
Launch site: AIR FORCE EASTERN TEST RANGE (AFETR)
aabbcc
Your satellite tracking list
Your tracking list is empty




NASA's NSSDC Master Catalog

Two Line Element Set (TLE):
1 44347U 19036J   20338.54982908  .00114378 -30645-5  11248-2 0  9998
2 44347  28.5259 287.0656 0234506  60.3012 302.0714 15.37222642 79941
Source of the keplerian elements: AFSPC